SCP
-0 -0 0 0 -0 -0 -0 -0 -0 -0 0 0 0 0 0 -0 0 0 -0 -0 -0 -0 -0 -0 -0 -1 -2 -3 -2 -1 -1 -0
0 0 0 0 0 -0 -0 0 0 0 0 0 0 0 -0 0 -0 0 0 0 0 -0 -0 -0 0 1 0 -0 0 1 0 -0
0 -0 0 0 0 0 -0 -0 0 0 0 0 0 -0 0 0 0 0 0 0 0 0 -0 -0 0 0 1 1 1 1 1 -0
0 -0 -0 0 0 0 0 -0 0 -0 -0 0 0 0 0 0 0 0 0 0 0 0 0 -0 -0 -0 0 1 1 1 1 0
0 0 -0 0 0 0 0 0 0 0 -0 0 0 0 0 -0 -0 0 0 0 0 1 0 0 -0 0 0 0 1 1 0 -0
0 0 0 0 0 0 0 0 0 0 0 0 0 0 0 0 0 0 0 0 0 0 1 0 -0 0 1 0 1 1 0 -0
0 0 0 0 0 0 0 0 0 0 -0 0 0 0 0 0 0 1 1 0 0 0 1 1 0 1 1 0 0 1 0 0
0 0 0 0 0 0 0 0 0 0 0 0 0 0 0 0 0 1 0 0 0 0 0 1 1 1 1 1 0 1 0 0
-0 0 0 0 0 0 0 0 -0 0 0 0 0 0 0 0 1 1 0 1 1 1 1 1 2 1 1 1 1 1 1 1
0 -0 0 0 0 -0 0 -0 -0 -0 0 0 0 0 0 0 2 2 2 2 2 2 2 2 2 1 1 2 2 1 1 2
0 0 0 -0 0 0 -0 -0 -0 -0 0 0 0 1 0 0 1 1 1 1 1 1 1 2 2 2 1 2 2 2 2 2
0 0 -0 -0 0 -0 -0 -0 -0 -0 0 -0 1 1 5 5 3 2 1 1 1 2 4 3 3 2 2 2 2 2 2 2
0 0 0 0 0 -0 -0 -0 -0 -0 0 0 1 1 3 4 3 1 1 1 1 3 4 5 4 4 3 2 1 1 2 2
0 0 -0 0 0 0 0 0 0 -0 -0 0 2 4 4 3 2 2 2 2 2 3 3 3 4 4 4 3 2 2 3 3
0 0 0 -0 0 -0 -0 0 -0 -0 0 2 4 4 2 1 1 1 2 2 2 1 2 2 2 2 2 3 3 4 3 3
0 0 -0 0 -0 -0 -0 -0 -1 -1 0 0 3 5 4 4 3 2 2 1 2 2 1 2 1 2 1 2 2 3 4 4
0 0 -0 0 0 0 -0 -0 -0 -0 0 0 0 5 5 4 4 2 2 2 2 2 1 1 1 1 1 1 1 2 2 2
0 0 0 0 0 0 0 0 0 0 0 -0 0 4 3 3 3 3 2 1 1 1 1 1 1 1 1 1 1 1 1 1
-0 0 -0 0 -0 -0 0 0 0 0 0 0 0 1 2 2 2 2 2 2 2 2 2 2 1 1 1 1 1 0 0 0
Wind_Speed_500mb
26 35 19 20 12 19 11 19 10 5 9 3 16 15 32 30 53 66 70 78 76 71 67 69 71 68 70 70 63 59 58 56
31 24 18 20 15 8 8 9 13 11 3 10 21 31 33 48 51 65 73 77 77 61 61 64 63 63 60 65 60 55 56 52
15 8 21 5 9 10 3 7 10 8 12 13 19 21 18 20 54 67 68 64 63 58 61 56 56 51 52 48 48 44 43 39
24 22 17 16 22 19 10 19 9 10 15 15 19 25 14 25 18 60 63 60 53 60 58 57 50 44 47 44 44 40 37 33
17 15 18 12 14 17 10 9 20 7 15 11 4 21 42 60 79 53 49 49 44 49 55 50 49 45 44 41 41 41 37 31
11 14 15 22 17 15 15 8 11 17 11 10 5 9 9 43 71 55 56 51 52 49 46 46 49 49 48 44 37 38 37 39
22 23 30 30 30 20 21 23 20 27 16 18 4 7 8 51 57 51 49 46 53 55 54 49 49 51 49 44 38 42 41 38
15 23 28 41 32 31 29 17 24 19 25 20 18 27 36 36 41 51 56 50 41 58 59 54 49 51 49 45 39 43 43 41
13 16 32 20 21 22 19 24 12 21 13 22 22 26 37 35 15 26 26 21 45 59 62 56 51 47 48 43 40 37 45 43
12 11 9 16 20 18 23 30 29 25 14 33 33 57 51 53 30 11 16 21 19 39 50 45 40 38 33 39 41 38 42 42
3 7 19 30 28 11 11 33 36 20 39 26 38 62 54 81 78 39 19 13 17 9 38 39 37 37 30 31 38 39 38 38
0 3 10 17 23 19 12 17 21 46 45 20 31 8 10 57 51 32 26 20 20 19 24 38 33 30 33 33 33 32 30 31
11 9 14 16 40 42 2 17 74 60 60 72 24 28 64 63 53 43 37 36 31 35 46 42 28 26 27 25 26 25 26 27
6 15 27 36 21 7 32 79 66 75 80 71 63 80 78 75 56 48 42 40 30 32 31 31 31 29 23 32 25 26 28 29
14 11 15 34 20 21 32 43 55 51 66 25 82 84 77 74 63 50 44 43 30 23 22 19 18 19 22 21 19 22 33 23
4 16 39 48 29 29 22 48 63 43 36 57 15 70 70 74 64 49 36 31 30 17 10 11 10 10 14 16 16 17 16 17
9 18 32 50 58 44 36 33 41 18 54 97 128 68 73 65 53 41 32 27 25 21 12 8 4 4 1 5 9 12 8 2
8 29 17 31 56 54 21 16 32 57 52 136 76 60 58 54 42 37 32 19 16 23 17 16 8 7 7 7 6 10 13 10
14 46 38 50 45 34 38 30 24 34 71 120 59 36 41 42 36 36 33 31 29 28 27 19 10 6 7 5 10 11 8 7
Wind_Direction_500mb
214 228 178 242 274 241 262 276 303 226 304 227 234 352 335 272 174 177 181 190 192 196 204 207 205 210 217 223 232 236 237 236
286 226 220 162 217 296 317 250 281 287 202 235 181 194 206 258 186 186 186 187 187 188 201 205 203 206 213 220 226 233 233 234
306 268 198 204 229 266 196 181 214 245 259 209 221 233 225 267 177 190 193 182 171 191 189 190 189 196 196 205 218 223 227 231
245 274 266 214 193 193 155 278 233 188 266 236 231 208 160 356 105 127 123 140 157 177 173 173 180 192 200 210 221 226 219 232
311 326 324 257 234 209 210 217 249 197 280 214 248 93 137 168 283 142 144 146 149 155 164 172 181 192 204 201 209 216 224 225
251 232 243 292 274 220 204 224 248 249 193 290 176 119 193 204 213 158 155 158 163 166 172 180 186 195 201 205 214 209 216 215
279 282 291 286 282 265 219 225 228 262 269 205 143 42 24 325 178 162 154 163 168 176 181 190 196 201 206 213 213 201 214 219
317 313 309 305 292 291 282 247 231 244 267 164 144 122 322 289 143 164 171 176 175 184 185 191 202 208 213 218 215 203 210 223
274 316 340 317 274 284 285 280 243 231 211 186 185 159 188 248 118 117 120 125 191 186 190 193 203 211 214 219 219 211 211 220
263 351 255 253 310 302 304 303 306 320 190 191 186 172 167 174 347 105 141 111 127 190 191 196 203 211 217 220 216 217 218 219
221 254 290 309 290 336 10 302 307 305 307 184 173 138 154 160 192 192 169 169 143 120 202 200 206 204 206 209 215 223 229 230
281 209 283 299 309 334 328 284 325 354 333 320 160 121 180 146 153 151 153 134 130 99 157 190 193 199 201 204 218 228 244 250
246 255 255 11 333 329 87 309 331 339 316 322 205 174 149 140 136 135 132 123 132 129 125 125 156 190 202 217 236 255 268 275
202 218 250 22 12 41 310 310 308 316 320 298 147 142 141 135 138 131 129 125 137 143 139 145 160 155 153 214 237 259 254 265
184 231 298 296 243 312 311 280 299 317 338 186 138 135 142 143 142 144 131 124 134 134 128 137 162 187 200 188 204 224 228 245
76 252 246 263 302 328 320 297 297 294 306 322 270 138 137 130 126 126 129 128 124 127 130 126 142 174 196 215 229 226 216 228
280 309 312 285 289 293 302 278 258 260 306 307 283 127 128 121 120 125 127 135 145 146 143 133 146 126 299 251 230 237 254 326
236 295 266 284 293 285 250 133 154 151 228 264 303 120 123 121 127 127 125 131 134 136 133 128 133 86 41 338 142 150 164 176
245 259 281 275 268 290 247 73 151 164 225 253 259 131 128 119 119 134 141 143 147 153 146 133 120 85 40 41 89 113 152 209
Wind_Speed_850mb
26 35 19 20 12 19 11 19 10 5 9 3 16 15 32 30 53 66 70 78 76 71 67 69 71 68 70 70 63 59 58 56
31 24 18 20 15 8 8 9 13 11 3 10 21 31 33 48 51 65 73 77 77 61 61 64 63 63 60 65 60 55 56 52
15 8 21 5 9 10 3 7 10 8 12 13 19 21 18 20 54 67 68 64 63 58 61 56 56 51 52 48 48 44 43 39
24 22 17 16 22 19 10 19 9 10 15 15 19 25 14 25 18 60 63 60 53 60 58 57 50 44 47 44 44 40 37 33
17 15 18 12 14 17 10 9 20 7 15 11 4 21 42 60 79 53 49 49 44 49 55 50 49 45 44 41 41 41 37 31
11 14 15 22 17 15 15 8 11 17 11 10 5 9 9 43 71 55 56 51 52 49 46 46 49 49 48 44 37 38 37 39
22 23 30 30 30 20 21 23 20 27 16 18 4 7 8 51 57 51 49 46 53 55 54 49 49 51 49 44 38 42 41 38
15 23 28 41 32 31 29 17 24 19 25 20 18 27 36 36 41 51 56 50 41 58 59 54 49 51 49 45 39 43 43 41
13 16 32 20 21 22 19 24 12 21 13 22 22 26 37 35 15 26 26 21 45 59 62 56 51 47 48 43 40 37 45 43
12 11 9 16 20 18 23 30 29 25 14 33 33 57 51 53 30 11 16 21 19 39 50 45 40 38 33 39 41 38 42 42
3 7 19 30 28 11 11 33 36 20 39 26 38 62 54 81 78 39 19 13 17 9 38 39 37 37 30 31 38 39 38 38
0 3 10 17 23 19 12 17 21 46 45 20 31 8 10 57 51 32 26 20 20 19 24 38 33 30 33 33 33 32 30 31
11 9 14 16 40 42 2 17 74 60 60 72 24 28 64 63 53 43 37 36 31 35 46 42 28 26 27 25 26 25 26 27
6 15 27 36 21 7 32 79 66 75 80 71 63 80 78 75 56 48 42 40 30 32 31 31 31 29 23 32 25 26 28 29
14 11 15 34 20 21 32 43 55 51 66 25 82 84 77 74 63 50 44 43 30 23 22 19 18 19 22 21 19 22 33 23
4 16 39 48 29 29 22 48 63 43 36 57 15 70 70 74 64 49 36 31 30 17 10 11 10 10 14 16 16 17 16 17
9 18 32 50 58 44 36 33 41 18 54 97 128 68 73 65 53 41 32 27 25 21 12 8 4 4 1 5 9 12 8 2
8 29 17 31 56 54 21 16 32 57 52 136 76 60 58 54 42 37 32 19 16 23 17 16 8 7 7 7 6 10 13 10
14 46 38 50 45 34 38 30 24 34 71 120 59 36 41 42 36 36 33 31 29 28 27 19 10 6 7 5 10 11 8 7
Wind_Direction_850mb
214 228 178 242 274 241 262 276 303 226 304 227 234 352 335 272 174 177 181 190 192 196 204 207 205 210 217 223 232 236 237 236
286 226 220 162 217 296 317 250 281 287 202 235 181 194 206 258 186 186 186 187 187 188 201 205 203 206 213 220 226 233 233 234
306 268 198 204 229 266 196 181 214 245 259 209 221 233 225 267 177 190 193 182 171 191 189 190 189 196 196 205 218 223 227 231
245 274 266 214 193 193 155 278 233 188 266 236 231 208 160 356 105 127 123 140 157 177 173 173 180 192 200 210 221 226 219 232
311 326 324 257 234 209 210 217 249 197 280 214 248 93 137 168 283 142 144 146 149 155 164 172 181 192 204 201 209 216 224 225
251 232 243 292 274 220 204 224 248 249 193 290 176 119 193 204 213 158 155 158 163 166 172 180 186 195 201 205 214 209 216 215
279 282 291 286 282 265 219 225 228 262 269 205 143 42 24 325 178 162 154 163 168 176 181 190 196 201 206 213 213 201 214 219
317 313 309 305 292 291 282 247 231 244 267 164 144 122 322 289 143 164 171 176 175 184 185 191 202 208 213 218 215 203 210 223
274 316 340 317 274 284 285 280 243 231 211 186 185 159 188 248 118 117 120 125 191 186 190 193 203 211 214 219 219 211 211 220
263 351 255 253 310 302 304 303 306 320 190 191 186 172 167 174 347 105 141 111 127 190 191 196 203 211 217 220 216 217 218 219
221 254 290 309 290 336 10 302 307 305 307 184 173 138 154 160 192 192 169 169 143 120 202 200 206 204 206 209 215 223 229 230
281 209 283 299 309 334 328 284 325 354 333 320 160 121 180 146 153 151 153 134 130 99 157 190 193 199 201 204 218 228 244 250
246 255 255 11 333 329 87 309 331 339 316 322 205 174 149 140 136 135 132 123 132 129 125 125 156 190 202 217 236 255 268 275
202 218 250 22 12 41 310 310 308 316 320 298 147 142 141 135 138 131 129 125 137 143 139 145 160 155 153 214 237 259 254 265
184 231 298 296 243 312 311 280 299 317 338 186 138 135 142 143 142 144 131 124 134 134 128 137 162 187 200 188 204 224 228 245
76 252 246 263 302 328 320 297 297 294 306 322 270 138 137 130 126 126 129 128 124 127 130 126 142 174 196 215 229 226 216 228
280 309 312 285 289 293 302 278 258 260 306 307 283 127 128 121 120 125 127 135 145 146 143 133 146 126 299 251 230 237 254 326
236 295 266 284 293 285 250 133 154 151 228 264 303 120 123 121 127 127 125 131 134 136 133 128 133 86 41 338 142 150 164 176
245 259 281 275 268 290 247 73 151 164 225 253 259 131 128 119 119 134 141 143 147 153 146 133 120 85 40 41 89 113 152 209